sim
Sign-in with your pilot id or email,
or register
Callsign
Passwort

Schedule Details

Flight Number: RYR1528
Departure: Luqa Malta International Airport (LMML) at 16:05
Arrival: Bratislava M. R. Stefanik Airport (LZIB) at 18:25
Route: Ryanair Passenger Schedule. Enter filed route here before submitting Pirep.

Weather Information
Getting current METAR information for LMML 310545Z 02005KT 360V070 9999 FEW011 20/18 Q1014
Getting current METAR information for LZIB 310530Z 30008KT 9999 -RA FEW047 BKN077 OVC100 12/05 Q1015 NOSIG

Schedule Frequency

Route Map